[[{"header":{"parameterUnit":"m.s-1","parameterCategory":1,"la1":30.2991,"la2":30.254,"lo1":-89.0895,"lo2":-89.0444,"dy":0.0017,"dx":0.0017,"nx":28,"ny":28,"refTime":"2024-04-11T21:00:00:Z","depth":0,"parameterNumber":2,"parameterNumberName":"U-component_of_WINDS"},"data":[0,0,0,0,0,0,0,0,0,0,0,0,0,0,0,0,0,0,0,0,0,0,0,0,0,0,0,0,0,0,0,0,0,0,0,0,0,0,0,0,0,0,0,0,0,0,0,0,0,0,0,0,0,0,0,0,0,0,-1.1456,-1.1455,0,-1.1365,-1.1364,-1.1363,-1.1271,-1.1269,-1.1268,-1.1267,-1.1175,-1.1174,-1.1172,0,0,0,0,0,0,0,0,0,0,0,0,0,-1.1555,-1.1553,-1.1456,-1.1455,-1.1454,-1.1365,-1.1364,-1.1362,-1.1271,-1.1269,-1.1268,-1.1266,-1.1175,-1.1174,-1.1172,0,0,0,0,0,0,0,0,0,0,0,0,0,-1.1492,-1.1553,-1.1456,-1.1397,-1.1391,-1.1365,-1.1363,-1.1362,-1.1271,-1.1269,-1.1267,-1.1266,-1.1176,-1.1174,-1.1172,-1.1197,0,0,-1.1166,-1.1165,0,0,0,0,0,0,0,0,-1.1496,-1.1489,-1.1407,-1.1401,-1.1394,-1.1327,-1.1364,-1.1307,-1.1272,-1.1317,-1.1267,-1.1265,-1.1227,-1.1221,-1.1208,-1.1193,-1.1189,-1.1166,-1.1165,-1.1164,-1.1163,0,0,0,0,0,0,0,-1.15,-1.1492,-1.142,-1.1406,-1.1398,-1.1377,-1.1366,-1.1353,-1.1283,-1.1313,-1.1306,-1.1296,-1.1223,-1.121,-1.1205,-1.1187,-1.1166,-1.1164,-1.1163,-1.1162,-1.1191,-1.1193,0,0,0,0,0,0,-1.1513,-1.1497,-1.1423,-1.1417,-1.1442,-1.1376,-1.1364,-1.1351,-1.1283,-1.1271,-1.1298,-1.1292,-1.1214,-1.1207,-1.1201,-1.1228,-1.1164,-1.1162,-1.1161,-1.1189,-1.1192,-1.1194,0,0,0,0,0,0,-1.1516,-1.1508,-1.1426,-1.1455,-1.1443,-1.1377,-1.1362,-1.135,-1.1336,-1.1272,-1.1259,-1.1297,-1.1212,-1.1204,-1.1199,-1.1223,-1.1161,-1.1159,-1.1187,-1.119,-1.1193,-1.1281,0,0,0,0,0,0,-1.1519,-1.1509,-1.1517,-1.1456,-1.1442,-1.1425,-1.1364,-1.1349,-1.1333,-1.1325,-1.1268,-1.1257,-1.121,-1.1203,-1.1197,-1.122,-1.1158,-1.1185,-1.1188,-1.1192,-1.1275,-1.1286,-1.1295,0,0,0,0,0,-1.1523,-1.1545,-1.1518,-1.1509,-1.145,-1.1427,-1.1419,-1.1365,-1.1335,-1.1343,-1.1303,-1.1258,-1.1222,-1.1203,-1.1196,-1.1218,-1.1183,-1.1187,-1.1192,-1.1271,-1.1284,-1.1295,0,0,0,0,0,0,-1.161,-1.1536,-1.1505,-1.1507,-1.1474,-1.1411,-1.1419,-1.138,-1.1355,-1.1348,-1.1283,-1.1271,-1.1274,-1.1245,-1.1226,-1.124,-1.1196,-1.12,-1.1259,-1.1271,-1.1281,-1.1288,-1.1156,0,0,0,0,0,-1.163,-1.1617,-1.1552,-1.1561,-1.1546,-1.1486,-1.1474,-1.1435,-1.1398,-1.1384,-1.1342,-1.1309,-1.129,-1.1279,-1.1257,-1.1271,-1.1258,-1.1283,-1.1293,-1.1302,-1.1305,-1.1313,-1.1324,-1.1208,-1.1208,-1.1208,0,0,-1.1671,-1.1628,-1.1623,-1.1578,-1.1547,-1.1536,-1.1475,-1.1465,-1.1456,-1.1382,-1.1375,-1.1345,-1.1303,-1.1308,-1.1308,-1.1284,-1.1335,-1.1307,-1.1315,-1.1313,-1.1319,-1.133,-1.1339,-1.1211,-1.1211,-1.121,0,0,-1.1738,-1.1704,-1.1709,-1.168,-1.1635,-1.1596,-1.1597,-1.1541,-1.1517,-1.151,-1.1455,-1.1444,-1.1412,-1.1386,-1.1368,-1.143,-1.1389,-1.1425,-1.1478,-1.1486,-1.1495,-1.1503,-1.1526,-1.1535,-1.1428,-1.1429,-1.1429,0,-1.1794,-1.1774,-1.1716,-1.171,-1.1693,-1.1626,-1.1631,-1.1607,-1.1557,-1.1548,-1.1522,-1.1482,-1.1449,-1.1448,-1.1464,-1.1451,-1.1452,-1.1431,-1.1498,-1.1505,-1.1512,-1.1534,-1.1543,-1.1433,-1.1433,-1.1432,-1.1432,0,-1.1846,-1.1834,-1.1843,-1.1798,-1.1781,-1.1781,-1.1725,-1.1715,-1.1679,-1.1643,-1.1638,-1.1596,-1.1567,-1.1564,-1.1528,-1.1559,-1.1546,-1.151,-1.1464,-1.1529,-1.1548,-1.1556,-1.144,-1.1439,-1.1437,-1.1436,0,0,-1.1965,-1.189,-1.1894,-1.1874,-1.1821,-1.181,-1.1808,-1.178,-1.1774,-1.1743,-1.1741,-1.1717,-1.1684,-1.1665,-1.1626,-1.1633,-1.1687,-1.1596,-1.1594,-1.1616,-1.1721,-1.1749,-1.1759,-1.166,-1.1661,-1.1662,-1.1725,0,-1.2025,-1.2016,-1.1965,-1.1972,-1.1961,-1.1899,-1.1897,-1.1866,-1.1833,-1.182,-1.1783,-1.1768,-1.1725,-1.1713,-1.1718,-1.1679,-1.1707,-1.1674,-1.1659,-1.1659,-1.1672,-1.1769,-1.1798,-1.1859,-1.1732,-1.1733,-1.1734,0,-1.2092,-1.2067,-1.2073,-1.2022,-1.2015,-1.2015,-1.1986,-1.1974,-1.1938,-1.1913,-1.1893,-1.185,-1.1846,-1.1803,-1.1799,-1.1777,-1.1768,-1.1749,-1.175,-1.1747,-1.1701,-1.177,-1.1877,-1.1887,-1.1745,-1.1745,-1.1744,0,-1.218,-1.2147,-1.2147,-1.2131,-1.2072,-1.2074,-1.2049,-1.2011,-1.1998,-1.1973,-1.1965,-1.194,-1.1927,-1.1909,-1.1862,-1.1835,-1.1863,-1.1816,-1.1844,-1.1846,-1.1853,-1.1853,-1.1962,-1.1846,-1.1846,-1.1846,-1.1846,0,-1.2252,-1.2259,-1.2186,-1.2186,-1.2192,-1.2135,-1.2143,-1.2113,-1.208,-1.2075,-1.202,-1.2016,-1.1952,-1.1942,-1.1904,-1.1908,-1.1902,-1.1883,-1.1873,-1.1889,-1.1891,-1.1882,-1.1877,-1.1848,-1.1848,-1.1847,-1.1847,0,-1.2352,-1.2303,-1.2299,-1.2244,-1.223,-1.2237,-1.2191,-1.219,-1.2154,-1.2148,-1.2143,-1.2088,-1.2073,-1.2024,-1.1996,-1.1971,-1.1987,-1.1967,-1.1999,-1.1993,-1.2025,-1.2023,-1.2131,-1.2143,-1.202,-1.2021,-1.2022,0,-1.2401,-1.2405,-1.2351,-1.2343,-1.2321,-1.2309,-1.2296,-1.224,-1.2229,-1.219,-1.2194,-1.2175,-1.2157,-1.2137,-1.2095,-1.2075,-1.2055,-1.2094,-1.2051,-1.2067,-1.2057,-1.2058,-1.2059,-1.2104,-1.2105,-1.2107,-1.2108,0,-1.2495,-1.2471,-1.2454,-1.2429,-1.2415,-1.2393,-1.2368,-1.2365,-1.2304,-1.2294,-1.2279,-1.2265,-1.2238,-1.222,-1.2194,-1.217,-1.213,-1.2122,-1.2127,-1.2143,-1.2162,-1.2154,-1.2026,-1.2119,-1.2118,-1.2117,-1.2117,-1.2116,-1.2571,-1.2572,-1.2535,-1.2519,-1.2494,-1.2473,-1.247,-1.2435,-1.242,-1.2394,-1.2363,-1.2352,-1.2318,-1.2279,-1.2258,-1.225,-1.2227,-1.2235,-1.2237,-1.2241,-1.2249,-1.2164,-1.2245,-1.2244,-1.2244,-1.2243,-1.2243,0,-1.2663,-1.2637,-1.2622,-1.2589,-1.2577,-1.254,-1.2511,-1.2504,-1.2495,-1.2467,-1.245,-1.2434,-1.2418,-1.2376,-1.2356,-1.2357,-1.2339,-1.2354,-1.2354,-1.235,-1.2269,-1.2267,-1.237,-1.237,-1.237,-1.237,-1.237,-1.237,-1.2709,-1.2711,-1.2683,-1.2673,-1.2646,-1.2635,-1.2622,-1.2603,-1.258,-1.2565,-1.2551,-1.2524,-1.2491,-1.2469,-1.2453,-1.2441,-1.2437,-1.2459,-1.2442,-1.2367,-1.2355,-1.2343,-1.2341,-1.2458,-1.2458,-1.2523,-1.2523,-1.2524]},{"header":{"parameterUnit":"m.s-1","parameterCategory":1,"la1":30.2991,"la2":30.254,"lo1":-89.0895,"lo2":-89.0444,"dy":0.0017,"dx":0.0017,"nx":28,"ny":28,"refTime":"2024-04-11T21:00:00:Z","depth":0,"parameterNumber":3,"parameterNumberName":"V-component_of_WINDS"},"data":[0,0,0,0,0,0,0,0,0,0,0,0,0,0,0,0,0,0,0,0,0,0,0,0,0,0,0,0,0,0,0,0,0,0,0,0,0,0,0,0,0,0,0,0,0,0,0,0,0,0,0,0,0,0,0,0,0,0,1.7427,1.7427,0,1.7425,1.7424,1.7424,1.7423,1.7423,1.7423,1.7423,1.742,1.742,1.742,0,0,0,0,0,0,0,0,0,0,0,0,0,1.743,1.743,1.7427,1.7427,1.7427,1.7425,1.7424,1.7424,1.7423,1.7423,1.7423,1.7423,1.742,1.742,1.742,0,0,0,0,0,0,0,0,0,0,0,0,0,1.7428,1.743,1.7427,1.7426,1.7426,1.7425,1.7424,1.7424,1.7423,1.7423,1.7423,1.7423,1.742,1.742,1.742,1.742,0,0,1.742,1.742,0,0,0,0,0,0,0,0,1.7428,1.7428,1.7426,1.7426,1.7426,1.7424,1.7425,1.7423,1.7423,1.7424,1.7423,1.7423,1.7421,1.7421,1.7421,1.742,1.7419,1.742,1.742,1.742,1.742,0,0,0,0,0,0,0,1.7428,1.7428,1.7426,1.7426,1.7426,1.7425,1.7425,1.7424,1.7423,1.7424,1.7424,1.7423,1.7421,1.7421,1.7421,1.7419,1.742,1.742,1.742,1.742,1.7418,1.7418,0,0,0,0,0,0,1.7429,1.7428,1.7426,1.7426,1.7427,1.7425,1.7425,1.7425,1.7423,1.7422,1.7423,1.7423,1.7421,1.7421,1.7421,1.742,1.742,1.7419,1.7419,1.7418,1.7418,1.7418,0,0,0,0,0,0,1.7429,1.7428,1.7426,1.7427,1.7427,1.7425,1.7425,1.7424,1.7424,1.7422,1.7422,1.7423,1.7421,1.7421,1.742,1.742,1.7419,1.7419,1.7418,1.7418,1.7418,1.7419,0,0,0,0,0,0,1.7429,1.7429,1.7429,1.7427,1.7427,1.7426,1.7425,1.7424,1.7424,1.7424,1.7422,1.7422,1.7421,1.742,1.742,1.742,1.7419,1.7418,1.7418,1.7418,1.7419,1.7419,1.7419,0,0,0,0,0,1.7429,1.7429,1.7429,1.7428,1.7427,1.7426,1.7425,1.7424,1.7424,1.7424,1.7423,1.7422,1.742,1.742,1.742,1.742,1.7418,1.7418,1.7418,1.7419,1.7419,1.7419,0,0,0,0,0,0,1.743,1.7429,1.7428,1.7428,1.7427,1.7425,1.7425,1.7425,1.7424,1.7424,1.7422,1.7422,1.7421,1.742,1.742,1.7419,1.7419,1.7419,1.742,1.742,1.742,1.742,1.7419,0,0,0,0,0,1.7431,1.743,1.7429,1.7429,1.7428,1.7427,1.7426,1.7425,1.7424,1.7424,1.7423,1.7422,1.7421,1.742,1.7419,1.7419,1.7418,1.7419,1.7419,1.7419,1.7419,1.7418,1.7418,1.7418,1.7418,1.7418,0,0,1.7431,1.743,1.743,1.7429,1.7428,1.7427,1.7426,1.7426,1.7425,1.7424,1.7423,1.7422,1.7421,1.742,1.742,1.7419,1.7419,1.7419,1.7419,1.7419,1.7418,1.7418,1.7418,1.7418,1.7418,1.7418,0,0,1.7432,1.7431,1.7431,1.743,1.7429,1.7428,1.7428,1.7427,1.7426,1.7425,1.7424,1.7423,1.7422,1.7421,1.742,1.742,1.742,1.742,1.7421,1.742,1.742,1.742,1.742,1.742,1.742,1.742,1.742,0,1.7433,1.7432,1.7431,1.743,1.743,1.7428,1.7428,1.7427,1.7426,1.7425,1.7425,1.7423,1.7422,1.7421,1.7421,1.7421,1.742,1.742,1.742,1.742,1.742,1.742,1.742,1.742,1.742,1.742,1.742,0,1.7433,1.7433,1.7432,1.7431,1.743,1.743,1.7428,1.7428,1.7427,1.7426,1.7425,1.7424,1.7423,1.7422,1.7422,1.7421,1.7421,1.7421,1.742,1.742,1.742,1.742,1.742,1.742,1.742,1.742,0,0,1.7435,1.7433,1.7433,1.7432,1.7431,1.743,1.7429,1.7428,1.7428,1.7427,1.7426,1.7425,1.7424,1.7423,1.7422,1.7422,1.7422,1.7421,1.7421,1.7421,1.7421,1.7421,1.7421,1.7421,1.7421,1.7421,1.7421,0,1.7435,1.7434,1.7433,1.7432,1.7432,1.743,1.743,1.7429,1.7428,1.7427,1.7426,1.7425,1.7424,1.7424,1.7423,1.7422,1.7422,1.7422,1.7421,1.742,1.7421,1.7421,1.7422,1.7422,1.7421,1.7421,1.7421,0,1.7436,1.7435,1.7434,1.7432,1.7432,1.7432,1.743,1.7429,1.7428,1.7427,1.7427,1.7426,1.7425,1.7424,1.7423,1.7423,1.7422,1.7421,1.7421,1.7421,1.7421,1.7421,1.7422,1.7422,1.7421,1.7421,1.7421,0,1.7437,1.7435,1.7435,1.7434,1.7432,1.7432,1.7431,1.743,1.7429,1.7428,1.7427,1.7426,1.7425,1.7424,1.7423,1.7423,1.7422,1.7421,1.7421,1.7421,1.7421,1.7421,1.7421,1.742,1.742,1.742,1.742,0,1.7438,1.7437,1.7435,1.7435,1.7434,1.7433,1.7432,1.7431,1.743,1.7429,1.7428,1.7427,1.7425,1.7424,1.7423,1.7422,1.7422,1.7421,1.7421,1.7421,1.7421,1.7421,1.7421,1.742,1.742,1.742,1.742,0,1.7439,1.7438,1.7437,1.7435,1.7434,1.7434,1.7433,1.7432,1.7431,1.743,1.743,1.7428,1.7427,1.7425,1.7423,1.7423,1.7422,1.7421,1.7422,1.7422,1.7422,1.7422,1.7422,1.7422,1.7421,1.7421,1.7421,0,1.7439,1.7439,1.7437,1.7436,1.7436,1.7435,1.7434,1.7433,1.7432,1.743,1.743,1.7428,1.7427,1.7425,1.7424,1.7422,1.7422,1.7422,1.7422,1.7422,1.7422,1.7422,1.7422,1.7422,1.7422,1.7422,1.7422,0,1.744,1.7439,1.7438,1.7437,1.7436,1.7435,1.7434,1.7434,1.7432,1.7431,1.743,1.7429,1.7427,1.7426,1.7424,1.7423,1.7422,1.7422,1.7422,1.7422,1.7423,1.7423,1.7422,1.7422,1.7422,1.7422,1.7422,1.7422,1.7441,1.744,1.7439,1.7438,1.7437,1.7436,1.7435,1.7434,1.7433,1.7432,1.7431,1.7429,1.7428,1.7426,1.7425,1.7423,1.7423,1.7423,1.7423,1.7423,1.7423,1.7423,1.7423,1.7423,1.7423,1.7423,1.7423,0,1.7441,1.7441,1.744,1.7438,1.7437,1.7437,1.7435,1.7434,1.7433,1.7432,1.7431,1.7429,1.7428,1.7426,1.7425,1.7424,1.7424,1.7424,1.7424,1.7424,1.7423,1.7424,1.7424,1.7424,1.7424,1.7424,1.7424,1.7424,1.7442,1.7441,1.744,1.7439,1.7438,1.7436,1.7436,1.7435,1.7434,1.7432,1.7431,1.743,1.7428,1.7427,1.7425,1.7425,1.7424,1.7424,1.7424,1.7424,1.7424,1.7423,1.7424,1.7424,1.7424,1.7424,1.7424,1.7424]}]]